Regional Weather Roundup
Issued by NWS Midland/Odessa, TX

Home | Current Version | Previous Version | Text Only | Print | Product List | Glossary On
Versions: 1 2 3 4 5 6 7 8 9 10 11 12 13 14 15 16 17 18 19 20 21 22 23 24 25 26 27 28 29 30 31 32 33 34 35 36 37 38 39 40 41 42 43 44 45 46 47 48 49 50
000
ASUS44 KMAF 210301
RWRMAF
MIDLAND AREA WEATHER ROUNDUP
NATIONAL WEATHER SERVICE MIDLAND TX
900 PM CST SAT JAN 20 2018

...IN SOUTHWEST TEXAS AND SOUTHEAST NEW MEXICO...

CITY           SKY/WX    TMP DP  RH WIND       PRES   REMARKS
ALPINE         CLOUDY    56  25  30 SW9       29.99S
ANDREWS        FAIR      56  23  27 S9        29.87R
ARTESIA        PTCLDY    54  16  22 S10       29.83F
BIG SPRING     CLEAR     57  30  35 S14       29.88S
CARLSBAD       CLEAR     44  15  31 W3        29.82F
DRYDEN           N/A    N/A N/A N/A N8        29.92R
FORT STOCKTON  CLEAR     62  28  27 S16       29.87S
GUAD PASS      PTCLDY    55  19  24 W14       29.92F
HOBBS          CLOUDY    48  12  23 W12       29.86S
LAMESA         MOCLDY    54  19  26 S12       29.85R
MARFA          CLEAR     40  17  39 CALM      29.97S
MIDLAND AIRPK    N/A     60  32  34 S12       29.86S
MIDLAND INTL   CLEAR     56  31  38 S13       29.86S
ODESSA         CLEAR     59  31  34 S13       29.87R
PECOS          CLOUDY    51  21  30 W3        29.84S
PRESIDIO       FAIR      60  24  25 N9        29.88S
SEMINOLE       CLEAR     53  15  22 SW8       29.86S
SNYDER         CLEAR     55  27  33 S10       29.84S
WINK           CLOUDY    51  18  27 SE10      29.84R
$$
...OTHER STATIONS IN TEXAS...

CITY           SKY/WX    TMP DP  RH WIND       PRES   REMARKS
ABILENE        CLEAR     57  31  37 S9        29.85R
AMARILLO       CLOUDY    46  14  27 S10       29.76F
AUSTIN         PTCLDY    49  49 100 CALM      29.99S
BROWNSVILLE    FAIR      66  65  96 SE8       30.02R
CORPUS CHRISTI PTCLDY    61  61 100 SE9       30.01R
DALLAS FTW     PTCLDY    62  56  80 S18       29.90S
DEL RIO        CLEAR     53  48  83 SE9       29.96R
EL PASO        PTCLDY    57  23  26 SW9       29.85F
HOUSTON INT    LGT RAIN  66  65  96 SE9       30.04F
LUBBOCK        CLEAR     57  14  18 SW12      29.81S
SAN ANGELO     CLEAR     59  35  40 S16       29.88R
SAN ANTONIO    MOCLDY    53  52  96 NW3       30.00R
WACO           CLOUDY    61  55  81 S17       29.96R
WICHITA FALLS  CLOUDY    48  41  76 SE5       29.75S
$$
...OTHER LOCATIONS IN NEW MEXICO...

CITY           SKY/WX    TMP DP  RH WIND       PRES   REMARKS
ALAMOGORDO     CLEAR     57  19  23 S13       29.85F
ALBUQUERQUE    MOCLDY    52  20  28 S18       29.77F
CANNON AFB     CLEAR     49  13  23 SW10      29.81S
CLOVIS         CLEAR     44  11  26 SW5       29.81S
HOLLOMAN AFB   CLEAR     54  20  26 SE13      29.86S
ROSWELL        PTCLDY    60  20  21 SW17      29.80R
RUIDOSO        CLEAR     46  16  29 SW7       29.89F
SANTA FE       MOCLDY    44  14  29 SE9       29.76F WCI  39
TRUTH OR CONSE MOCLDY    58  24  27 S20G28    29.79F
TUCUMCARI      PTCLDY    49  13  23 SW10      29.74S
$$



USA.gov is the U.S. government's official web portal to all federal, state and local government web resources and services.